Regional Weather Roundup
Issued by NWS Newport/Morehead, NC

Current Version | Previous Version | Graphics & Text | Print | Product List | Glossary Off
Versions: 1 2 3 4 5 6 7 8 9 10 11 12 13 14 15 16 17 18 19 20 21 22 23 24 25 26 27 28 29 30 31 32 33 34 35 36 37 38 39 40 41 42 43 44 45 46 47 48 49 50

975
ASUS42 KMHX 172025
RWRMHX
WEATHER ROUNDUP FOR EASTERN NORTH CAROLINA
NATIONAL WEATHER SERVICE NEWPORT/MOREHEAD CITY NC
400 PM EDT THU AUG 17 2017

NOTE: "FAIR" INDICATES FEW OR NO CLOUDS BELOW 12,000 FEET
WITH NO SIGNIFICANT WEATHER AND/OR OBSTRUCTIONS TO VISIBILITY

NCZ015>017-031-032-045>047-102-103-172100-
NORTH COAST

CITY           SKY/WX    TMP DP  RH WIND       PRES   REMARKS
EDENTON        SUNNY     89  76  65 CALM      29.98F
ELIZABETH CITY SUNNY     87  75  67 E12       29.99F
KITTY HAWK     CLEAR     82  71  68 SE7       29.99F
MANTEO         SUNNY     84  70  61 SE8       30.00F

$$

NCZ045>047-081-094-103-104-172100-
CENTRAL COAST

CITY           SKY/WX    TMP DP  RH WIND       PRES   REMARKS
FRISCO         SUNNY     86  75  69 SE7       30.01F

$$

NCZ095-097-098-100-101-172100-
SOUTHERN COAST

CITY           SKY/WX    TMP DP  RH WIND       PRES   REMARKS
BEAUFORT       SUNNY     86  77  74 S10       30.00F
CEDAR ISLAND   NOT AVBL
JACKSONVILLE   PTSUNNY   84  78  82 S9        29.99F
PINEY ISLAND   CLEAR    N/A N/A N/A S9        30.00F
WILMINGTON     CLOUDY    81  76  84 CALM      30.00F


$$

NCZ011>013-027>030-043-044-078>080-089-090>093-098-172100-
COASTAL PLAIN

CITY           SKY/WX    TMP DP  RH WIND       PRES   REMARKS
AHOSKIE          N/A     85  76  74 S5        29.97F
CLINTON        PTSUNNY   77  75  92 SW7G25    30.04R
ELIZABETHTOWN  NOT AVBL
GOLDSBORO      MOSUNNY   91  77  62 S14G23    29.95F HX 105
GREENVILLE     SUNNY     93  73  52 S12       29.98F HX 102
HAVELOCK       MOSUNNY   90  74  59 S9        30.00F
KENANSVILLE    CLOUDY    84  73  70 S6        29.99F
KINSTON        PTSUNNY   91  75  59 SE12      29.97F HX 102
NEW BERN       PTSUNNY   90  77  65 S10       30.00F HX 103
RICHLANDS      CLOUDY    82  78  88 S7        29.99F
ROCKY MOUNT    SUNNY     88  75  65 SE6       29.96F
WASHINGTON     SUNNY     90  76  63 SE8       29.97F HX 101
WHITEVILLE     CLOUDY    78  75  92 E6        29.98S

$$

AMZ130-135-150-152-154-156-158-170-250-252-270-ANZ085-086-088-633-658-670-172100-
MARINE OBSERVATIONS

STATION/POSITION TIME  TEMP    WIND        PRES    WAVE   SWELL
                       AIR SEA DIR/SP/G            HT/PER HT/PER
                 (UTC) (F)     (DEG/KT/KT) (MB)    (FT/S) (FT/S)
CHESAPEAKE LIGHT NOT AVBL
64 E VA BEACH    NOT AVBL
DUCK             NOT AVBL
2 E DUCK         NOT AVBL
OREGON INLET     NOT AVBL
13E OREGON INLT  NOT AVBL
HATTERAS CG      NOT AVBL
DIAMOND BUOY     NOT AVBL
CAPE LOOKOUT     NOT AVBL
BEAUFORT LAB     NOT AVBL
30 SE NEW RVR IN NOT AVBL
30 SE NEW RVR IN NOT AVBL
27 SE WRIGHTSVLE NOT AVBL
5 SE WRIGHTSVLE  NOT AVBL
225 S CAPE HAT   NOT AVBL
41 SE CHARLESTON NOT AVBL

$$




USA.gov is the U.S. government's official web portal to all federal, state and local government web resources and services.